[[{"header":{"parameterUnit":"m.s-1","parameterCategory":1,"la1":30.2991,"la2":30.254,"lo1":-89.0895,"lo2":-89.0444,"dy":0.0017,"dx":0.0017,"nx":28,"ny":28,"refTime":"2024-09-03T03:00:00:Z","depth":0,"parameterNumber":2,"parameterNumberName":"U-component_of_WINDS"},"data":[0,0,0,0,0,0,0,0,0,0,0,0,0,0,0,0,0,0,0,0,0,0,0,0,0,0,0,0,0,0,0,0,0,0,0,0,0,0,0,0,0,0,0,0,0,0,0,0,0,0,0,0,0,0,0,0,0,0,1.4725,1.4725,0,1.4769,1.477,1.477,1.4713,1.4711,1.4709,1.4707,1.4756,1.4759,1.4762,0,0,0,0,0,0,0,0,0,0,0,0,0,1.4594,1.4596,1.4725,1.4725,1.4726,1.4769,1.477,1.477,1.4714,1.4711,1.4709,1.4706,1.4755,1.4758,1.4762,0,0,0,0,0,0,0,0,0,0,0,0,0,1.4646,1.4597,1.4725,1.4703,1.4701,1.4769,1.477,1.4771,1.4714,1.4711,1.4708,1.4705,1.4753,1.4758,1.4763,1.4855,0,0,1.4778,1.478,0,0,0,0,0,0,0,0,1.4643,1.4651,1.4706,1.4704,1.4703,1.4732,1.4741,1.4799,1.4715,1.4709,1.4707,1.4704,1.4751,1.4756,1.4771,1.4857,1.486,1.4778,1.4781,1.4783,1.4784,0,0,0,0,0,0,0,1.4639,1.4648,1.4743,1.4706,1.4705,1.4692,1.4696,1.4752,1.4747,1.471,1.4706,1.4712,1.4749,1.4766,1.4772,1.486,1.4778,1.4782,1.4785,1.4787,1.5024,1.5028,0,0,0,0,0,0,1.4638,1.4646,1.4741,1.4744,1.4664,1.4697,1.4701,1.4726,1.4746,1.4746,1.4714,1.4709,1.476,1.4766,1.4773,1.4882,1.4783,1.4788,1.479,1.5021,1.5025,1.5029,0,0,0,0,0,0,1.4635,1.4647,1.4739,1.4694,1.4704,1.4702,1.4731,1.4729,1.4745,1.475,1.4749,1.4732,1.4757,1.4766,1.4835,1.4883,1.479,1.4794,1.5017,1.5022,1.5027,1.51,0,0,0,0,0,0,1.4632,1.4646,1.4681,1.4695,1.4707,1.48,1.4734,1.4732,1.4754,1.4747,1.4766,1.4767,1.4756,1.4828,1.484,1.4888,1.4798,1.5013,1.5019,1.5025,1.5094,1.5107,1.5119,0,0,0,0,0,1.4627,1.47,1.4683,1.4695,1.475,1.4803,1.481,1.4795,1.4758,1.4793,1.4795,1.4766,1.4876,1.4835,1.4848,1.4898,1.501,1.5017,1.5025,1.5088,1.5105,1.5119,0,0,0,0,0,0,1.4693,1.4702,1.4682,1.4762,1.4782,1.4793,1.4836,1.4813,1.4844,1.4837,1.4818,1.4823,1.4896,1.4904,1.4859,1.4988,1.4937,1.4947,1.498,1.4996,1.5009,1.5005,1.4802,0,0,0,0,0,1.4717,1.4758,1.4764,1.4834,1.4844,1.4839,1.4861,1.4848,1.4868,1.4877,1.4884,1.4906,1.4945,1.4971,1.5007,1.5095,1.5098,1.5136,1.5148,1.5159,1.5168,1.5214,1.5231,1.5054,1.5054,1.5054,0,0,1.4766,1.4776,1.4803,1.4847,1.4861,1.4904,1.4846,1.4895,1.4927,1.4884,1.4949,1.4956,1.4978,1.5056,1.5091,1.5065,1.5217,1.5169,1.5177,1.518,1.5224,1.524,1.5255,1.5059,1.5058,1.5057,0,0,1.4878,1.489,1.4949,1.4964,1.4985,1.4981,1.4995,1.501,1.5012,1.5077,1.5045,1.5084,1.5152,1.5169,1.5187,1.5306,1.528,1.5318,1.5384,1.543,1.5443,1.5456,1.5497,1.5513,1.5328,1.5328,1.5328,0,1.4937,1.5001,1.4983,1.5033,1.5053,1.5016,1.5075,1.5091,1.5124,1.5139,1.5109,1.5193,1.5206,1.5288,1.5316,1.5333,1.5348,1.5315,1.5443,1.5455,1.5466,1.5505,1.5521,1.5332,1.5332,1.5331,1.5331,0,1.5072,1.5116,1.5162,1.5193,1.5218,1.5273,1.5264,1.5293,1.5277,1.5277,1.5343,1.5357,1.5395,1.5414,1.54,1.5493,1.5476,1.5445,1.5393,1.5488,1.5524,1.5539,1.5339,1.5337,1.5336,1.5335,0,0,1.5226,1.5246,1.5263,1.5276,1.5297,1.5331,1.5385,1.5421,1.5446,1.547,1.5514,1.5573,1.5544,1.5564,1.5552,1.5592,1.5684,1.5556,1.5556,1.5579,1.5787,1.581,1.5828,1.5668,1.5671,1.5673,1.5785,0,1.5337,1.5428,1.5414,1.5503,1.5543,1.5508,1.5555,1.5574,1.5575,1.561,1.5612,1.5653,1.5612,1.5624,1.5662,1.5665,1.5726,1.5657,1.5709,1.5711,1.5703,1.5847,1.5871,1.5976,1.58,1.5802,1.5804,0,1.5478,1.5506,1.5599,1.5613,1.5629,1.5671,1.5703,1.5738,1.5758,1.5756,1.5779,1.5759,1.5814,1.5761,1.5835,1.5789,1.581,1.5815,1.5818,1.5822,1.5762,1.5853,1.6009,1.6025,1.5826,1.5825,1.5823,0,1.558,1.5641,1.5704,1.5717,1.5735,1.5765,1.5774,1.5791,1.5814,1.5843,1.5857,1.5892,1.5911,1.5939,1.593,1.5893,1.6007,1.5953,1.6006,1.6007,1.6031,1.6029,1.6191,1.6047,1.6046,1.6046,1.6046,0,1.5705,1.5762,1.5749,1.5788,1.5852,1.5836,1.59,1.5905,1.592,1.596,1.5933,1.597,1.5957,1.5994,1.5988,1.605,1.6059,1.6059,1.6056,1.6061,1.6061,1.6073,1.6065,1.605,1.6049,1.6048,1.6048,0,1.5828,1.5822,1.5888,1.59,1.5904,1.5951,1.5961,1.5997,1.5996,1.6047,1.6058,1.6057,1.6099,1.6093,1.6141,1.6136,1.6214,1.6203,1.6206,1.6203,1.6256,1.6251,1.6431,1.6454,1.6296,1.6297,1.6298,0,1.5908,1.5951,1.5967,1.5991,1.6002,1.6041,1.6064,1.605,1.6075,1.6101,1.6135,1.6175,1.6206,1.6275,1.6279,1.6316,1.6305,1.6365,1.631,1.6313,1.6304,1.6301,1.6305,1.6376,1.6378,1.6379,1.638,0,1.6049,1.6043,1.6077,1.6109,1.6137,1.6162,1.6184,1.6206,1.6194,1.6224,1.6266,1.629,1.6338,1.6378,1.6412,1.6423,1.64,1.6398,1.6412,1.6416,1.6416,1.6416,1.6235,1.6394,1.6392,1.6391,1.6391,1.639,1.6152,1.6188,1.6205,1.6243,1.6259,1.628,1.6315,1.6318,1.6353,1.639,1.638,1.6428,1.6448,1.6491,1.6505,1.6543,1.6521,1.6541,1.6546,1.6551,1.6557,1.6411,1.6549,1.6549,1.6549,1.6548,1.6548,0,1.629,1.6299,1.6335,1.6366,1.6397,1.6372,1.6396,1.6423,1.6465,1.6485,1.6515,1.6564,1.6603,1.661,1.6647,1.6676,1.6666,1.6686,1.6683,1.6685,1.6575,1.6559,1.6693,1.6693,1.6693,1.6693,1.6693,1.6693,1.6366,1.6426,1.6423,1.6491,1.65,1.6546,1.6562,1.6582,1.6597,1.6653,1.6684,1.6688,1.6703,1.674,1.6775,1.6776,1.679,1.6814,1.6811,1.6708,1.6693,1.6679,1.6664,1.6818,1.6818,1.6918,1.6919,1.6919]},{"header":{"parameterUnit":"m.s-1","parameterCategory":1,"la1":30.2991,"la2":30.254,"lo1":-89.0895,"lo2":-89.0444,"dy":0.0017,"dx":0.0017,"nx":28,"ny":28,"refTime":"2024-09-03T03:00:00:Z","depth":0,"parameterNumber":3,"parameterNumberName":"V-component_of_WINDS"},"data":[0,0,0,0,0,0,0,0,0,0,0,0,0,0,0,0,0,0,0,0,0,0,0,0,0,0,0,0,0,0,0,0,0,0,0,0,0,0,0,0,0,0,0,0,0,0,0,0,0,0,0,0,0,0,0,0,0,0,0.8849,0.885,0,0.8912,0.8913,0.8914,0.8868,0.8866,0.8864,0.8862,0.8927,0.8931,0.8934,0,0,0,0,0,0,0,0,0,0,0,0,0,0.8687,0.8691,0.8849,0.885,0.885,0.8912,0.8913,0.8914,0.8868,0.8866,0.8863,0.8861,0.8926,0.893,0.8935,0,0,0,0,0,0,0,0,0,0,0,0,0,0.8755,0.8692,0.8849,0.8835,0.8834,0.8912,0.8913,0.8914,0.8869,0.8866,0.8862,0.886,0.8925,0.893,0.8935,0.903,0,0,0.8952,0.8954,0,0,0,0,0,0,0,0,0.8751,0.8761,0.8836,0.8836,0.8836,0.8879,0.888,0.8953,0.8869,0.8856,0.8862,0.8858,0.8914,0.892,0.8938,0.9033,0.9036,0.8952,0.8956,0.8958,0.896,0,0,0,0,0,0,0,0.8746,0.8758,0.8874,0.8837,0.8837,0.8825,0.8832,0.8894,0.8901,0.8857,0.8853,0.8862,0.8913,0.8933,0.894,0.9037,0.8952,0.8957,0.896,0.8962,0.921,0.9213,0,0,0,0,0,0,0.8743,0.8754,0.8872,0.8876,0.8785,0.8831,0.8838,0.8868,0.89,0.8902,0.8864,0.8859,0.8925,0.8933,0.8942,0.9053,0.8958,0.8963,0.8966,0.9206,0.921,0.9214,0,0,0,0,0,0,0.874,0.8754,0.8869,0.8814,0.8828,0.8837,0.8871,0.8871,0.8891,0.8906,0.8907,0.8884,0.8923,0.8934,0.9008,0.9055,0.8965,0.897,0.9202,0.9208,0.9212,0.9278,0,0,0,0,0,0,0.8735,0.8753,0.879,0.8815,0.8831,0.8935,0.8874,0.8874,0.8901,0.8895,0.8924,0.8926,0.8922,0.9,0.9013,0.9061,0.8975,0.9198,0.9205,0.9211,0.9272,0.9285,0.9296,0,0,0,0,0,0.873,0.8806,0.8792,0.8806,0.8877,0.8938,0.8947,0.894,0.8905,0.8941,0.895,0.8925,0.9047,0.9008,0.9022,0.9072,0.9195,0.9203,0.921,0.9266,0.9282,0.9295,0,0,0,0,0,0,0.8787,0.8809,0.8794,0.8881,0.8908,0.893,0.8976,0.8957,0.8995,0.8988,0.8977,0.8984,0.9061,0.9074,0.9029,0.9164,0.9116,0.9126,0.9154,0.9169,0.918,0.9176,0.8979,0,0,0,0,0,0.8809,0.8857,0.8874,0.8949,0.8963,0.8967,0.8994,0.8986,0.9013,0.9025,0.9039,0.9067,0.9111,0.914,0.9182,0.9273,0.9278,0.9314,0.9326,0.9336,0.9346,0.9393,0.9409,0.9238,0.9238,0.9238,0,0,0.8856,0.8875,0.8906,0.8961,0.8981,0.903,0.8977,0.9032,0.9068,0.9033,0.9103,0.9114,0.9144,0.9227,0.9264,0.924,0.9394,0.9346,0.9353,0.9358,0.9402,0.9418,0.9433,0.9243,0.9242,0.9242,0,0,0.8968,0.8987,0.9051,0.9071,0.9101,0.9103,0.9119,0.9144,0.915,0.922,0.9194,0.9236,0.9313,0.9335,0.9356,0.9473,0.9452,0.9487,0.955,0.9596,0.961,0.9622,0.9663,0.9677,0.9497,0.9497,0.9497,0,0.9023,0.9096,0.9086,0.9142,0.9166,0.9136,0.92,0.922,0.9263,0.9281,0.9253,0.9348,0.9366,0.9452,0.948,0.9499,0.9515,0.9484,0.9609,0.9621,0.9631,0.967,0.9686,0.9501,0.95,0.95,0.95,0,0.9161,0.9212,0.926,0.9301,0.9331,0.9391,0.939,0.9421,0.941,0.9414,0.9485,0.9506,0.955,0.957,0.956,0.9654,0.9638,0.961,0.9561,0.9652,0.9688,0.9703,0.9507,0.9505,0.9504,0.9503,0,0,0.9311,0.9345,0.9363,0.938,0.941,0.9449,0.9507,0.955,0.9577,0.9607,0.9654,0.9719,0.9692,0.9717,0.9709,0.9749,0.9839,0.9716,0.9716,0.9737,0.9943,0.9964,0.9981,0.9825,0.9828,0.983,0.994,0,0.9423,0.9524,0.9516,0.9611,0.9657,0.9628,0.9678,0.9702,0.9707,0.9746,0.9752,0.9798,0.976,0.9774,0.9812,0.982,0.988,0.9812,0.9868,0.9871,0.9862,1.0,1.0023,1.0126,0.9954,0.9957,0.9958,0,0.9568,0.9602,0.9702,0.9723,0.9742,0.9788,0.9825,0.9864,0.9889,0.989,0.9916,0.9901,0.9958,0.9907,0.9985,0.9939,0.9961,0.9968,0.9972,0.9977,0.992,1.0009,1.0159,1.0175,0.9981,0.9979,0.9977,0,0.9666,0.9737,0.9805,0.9821,0.9849,0.9881,0.9894,0.9916,0.9942,0.9975,0.9991,1.003,1.0052,1.0082,1.0078,1.0041,1.0157,1.0106,1.0158,1.0159,1.0185,1.0183,1.034,1.0199,1.0199,1.0199,1.0199,0,0.9792,0.9854,0.9849,0.9892,0.9959,0.9949,1.0016,1.0025,1.0045,1.0088,1.0065,1.0105,1.0096,1.0136,1.0133,1.0198,1.0208,1.0209,1.0208,1.0211,1.0211,1.0226,1.0219,1.0203,1.0202,1.0201,1.0201,0,0.9914,0.9913,0.9986,1.0005,1.0011,1.006,1.0076,1.0116,1.0118,1.0172,1.0184,1.0188,1.0234,1.0232,1.0284,1.0282,1.0361,1.0351,1.0352,1.035,1.0403,1.0397,1.0575,1.0597,1.0442,1.0444,1.0445,0,0.9994,1.0041,1.0065,1.0091,1.0106,1.015,1.0175,1.0166,1.0194,1.0225,1.0261,1.0304,1.0338,1.0412,1.042,1.0459,1.045,1.0509,1.0455,1.0457,1.045,1.0447,1.0451,1.052,1.0521,1.0523,1.0524,0,1.0136,1.0133,1.0171,1.0209,1.024,1.027,1.0296,1.032,1.0313,1.0345,1.0391,1.0418,1.047,1.0513,1.055,1.0562,1.0542,1.0541,1.0555,1.0559,1.0558,1.0558,1.0381,1.0537,1.0535,1.0535,1.0534,1.0533,1.0239,1.0279,1.0301,1.0344,1.0363,1.0388,1.0425,1.0432,1.047,1.0512,1.0504,1.0555,1.0578,1.0626,1.0641,1.0681,1.066,1.0681,1.0686,1.0691,1.0696,1.0551,1.0688,1.0687,1.0687,1.0687,1.0686,0,1.038,1.0392,1.0432,1.0469,1.0502,1.048,1.0508,1.0537,1.0582,1.0605,1.0639,1.0691,1.0732,1.0742,1.0781,1.0811,1.0802,1.0822,1.0819,1.0822,1.0714,1.0697,1.0828,1.0828,1.0828,1.0828,1.0827,1.0827,1.0457,1.0522,1.0521,1.0595,1.0607,1.0657,1.0675,1.0697,1.0715,1.0774,1.0808,1.0814,1.0832,1.0871,1.0908,1.0909,1.0925,1.0948,1.0946,1.0844,1.083,1.0816,1.0801,1.0951,1.0951,1.1051,1.1052,1.1052]}]]